Tracking 18945 objects as of 19-Jan-2018
HD Live streaming from Space Station
objects crossing your sky now

FENGYUN 1C DEB

Track FENGYUN 1C DEB now!
10-day predictions


NORAD ID: 31058
Int'l Code: 1999-025BFC
Perigee: 628.2 km
Apogee: 826.6 km
Inclination: 99.6 °
Period: 99.2 minutes
Semi major axis: 7098 km
RCS: 0.0094 m2 (small)
Launch date: May 10, 1999
Source: People's Republic of China (PRC)
Launch site: Taiyaun Space Center, China (TSC)

Note: This is SATELLITE DEBRIS
aabbcc
Your satellite tracking list
Your tracking list is empty




NASA's NSSDC Master Catalog

Two Line Element Set (TLE):
1 31058U 99025BFC 18017.79246420 +.00000345 +00000-0 +90024-4 0  9994
2 31058 099.6033 220.1700 0139754 062.4369 299.0940 14.51662822575254
Source of the keplerian elements: AFSPC